Mosby, MO

5:57 PM CST on December 14, 2019 (GMT -0600)
Clay County Regional

Weather History for KGPH - November, 2019

Change the Weather History Date:

Wednesday, November 13, 2019

  Actual Average (KMKC) Record (KMKC)
Temperature  
Mean Temperature 30 °F -  
Max Temperature 39 °F 53 °F 80 °F (1999)
Min Temperature 21 °F 37 °F 17 °F (2014)
Degree Days  
Heating Degree Days 35    
Moisture  
Dew Point 17 °F    
Average Humidity 58    
Maximum Humidity 80    
Minimum Humidity 38    
Precipitation  
Precipitation 0.00 in - - ()
Sea Level Pressure  
Sea Level Pressure 30.08 in    
Wind  
Wind Speed 3 mph ()    
Max Wind Speed 15 mph    
Max Gust Speed 20 mph    
Visibility 10.0 miles    
Events      
Averages and records for this station are not official NWS values.
T = Trace of Precipitation, MM = Missing Value Source: Averaged Metar Reports

Daily Weather History Graph

Daily Weather History Graph

Search for Another Location

Airport or City:

Astronomy

Nov. 13, 2019 Rise Set
Actual Time 6:58 AM CST 5:04 PM CST
Civil Twilight 6:29 AM CST 5:32 PM CST
Nautical Twilight 5:57 AM CST 6:04 PM CST
Astronomical Twilight 5:25 AM CST 6:36 PM CST
Moon 6:08 PM CST (11/13) 7:52 AM CST (11/13)
Length of Visible Light 11h 02m
Length of Day
10h 05m
Full, 99% of the Moon is Illuminated
Nov 13
Full
Nov 19
Last Quarter
Nov 26
New
Dec 4
First Quarter
Dec 11
Full

Hourly Weather History & Observations

Time (CST) Temp. Windchill Dew Point Humidity Pressure Visibility Wind Dir Wind Speed Gust Speed Precip Events Conditions
12:15 AM 23.0 °F - 12.2 °F 63% 30.24 in 10.0 mi Calm Calm - N/A   Unknown
12:35 AM 23.0 °F - 12.2 °F 63% 30.23 in 10.0 mi Calm Calm - N/A   Clear
12:55 AM 23.0 °F - 12.2 °F 63% 30.22 in 10.0 mi Calm Calm - N/A   Clear
1:15 AM 23.0 °F - 12.2 °F 63% 30.21 in 10.0 mi Calm Calm - N/A   Clear
1:35 AM 23.0 °F 14.7 °F 12.2 °F 63% 30.21 in 10.0 mi South 6.9 mph - N/A   Unknown
1:55 AM 23.0 °F - 12.2 °F 63% 30.19 in 10.0 mi Calm Calm - N/A   Clear
3:15 AM 21.2 °F - 12.2 °F 68% 30.17 in 10.0 mi Calm Calm - N/A   Clear
3:35 AM 21.2 °F - 12.2 °F 68% 30.16 in 10.0 mi Calm Calm - N/A   Clear
4:15 AM 23.0 °F 13.9 °F 12.2 °F 63% 30.13 in 10.0 mi South 8.1 mph - N/A   Clear
4:35 AM 23.0 °F 13.1 °F 12.2 °F 63% 30.12 in 10.0 mi South 9.2 mph - N/A   Clear
4:55 AM 23.0 °F - 14.0 °F 68% 30.11 in 10.0 mi Calm Calm - N/A   Clear
5:15 AM 23.0 °F - 14.0 °F 68% 30.10 in 10.0 mi Calm Calm - N/A   Clear
5:35 AM 23.0 °F 11.7 °F 14.0 °F 68% 30.09 in 10.0 mi South 11.5 mph 18.4 mph N/A   Clear
5:55 AM 23.0 °F 14.7 °F 14.0 °F 68% 30.09 in 10.0 mi South 6.9 mph 16.1 mph N/A   Clear
6:15 AM 24.8 °F 14.6 °F 14.0 °F 64% 30.09 in 10.0 mi South 10.4 mph - N/A   Clear
6:35 AM 24.8 °F 17.9 °F 14.0 °F 64% 30.08 in 10.0 mi South 5.8 mph 17.3 mph N/A   Clear
6:55 AM 24.8 °F 15.3 °F 14.0 °F 64% 30.08 in 10.0 mi South 9.2 mph - N/A   Clear
7:15 AM 24.8 °F 17.9 °F 14.0 °F 64% 30.08 in 10.0 mi South 5.8 mph - N/A   Unknown
7:35 AM 24.8 °F - 14.0 °F 64% 30.08 in 10.0 mi Calm Calm - N/A   Clear
7:55 AM 24.8 °F 16.1 °F 14.0 °F 64% 30.08 in 10.0 mi South 8.1 mph - N/A   Unknown
8:15 AM 24.8 °F 19.1 °F 14.0 °F 64% 30.09 in 10.0 mi SSW 4.6 mph - N/A   Clear
8:35 AM 26.6 °F - 14.0 °F 59% 30.10 in 10.0 mi Calm Calm - N/A   Clear
8:55 AM 28.4 °F 20.4 °F 15.8 °F 59% 30.09 in 10.0 mi South 8.1 mph - N/A   Clear
9:35 AM 28.4 °F 22.2 °F 15.8 °F 59% 30.08 in 10.0 mi South 5.8 mph - N/A   Clear
9:55 AM 30.2 °F 20.8 °F 15.8 °F 55% 30.08 in 10.0 mi SSW 11.5 mph - N/A   Clear
10:15 AM 32.0 °F - 14.0 °F 48% 30.07 in 10.0 mi Calm Calm - N/A   Unknown
10:35 AM 32.0 °F - 14.0 °F 48% 30.06 in 10.0 mi Calm Calm - N/A   Clear
10:55 AM 33.8 °F 23.9 °F 14.0 °F 44% 30.06 in 10.0 mi SSW 15.0 mph 19.6 mph N/A   Clear
11:15 AM 33.8 °F 25.8 °F 14.0 °F 44% 30.06 in 10.0 mi SSW 10.4 mph - N/A   Clear
11:35 AM 33.8 °F 25.8 °F 14.0 °F 44% 30.05 in 10.0 mi SSW 10.4 mph 18.4 mph N/A   Clear
12:15 PM 35.6 °F 27.1 °F 15.8 °F 44% 30.02 in 10.0 mi SSW 12.7 mph 16.1 mph N/A   Clear
12:35 PM 35.6 °F 27.1 °F 14.0 °F 41% 30.03 in 10.0 mi SW 12.7 mph 17.3 mph N/A   Clear
12:55 PM 35.6 °F 27.5 °F 14.0 °F 41% 30.02 in 10.0 mi SSW 11.5 mph - N/A   Clear
1:15 PM 37.4 °F 30.3 °F 14.0 °F 38% 30.02 in 10.0 mi SSW 10.4 mph 16.1 mph N/A   Clear
1:35 PM 37.4 °F 30.8 °F 15.8 °F 41% 30.01 in 10.0 mi SSW 9.2 mph - N/A   Clear
1:55 PM 37.4 °F 30.8 °F 15.8 °F 41% 30.01 in 10.0 mi SW 9.2 mph - N/A   Clear
2:15 PM 37.4 °F - 15.8 °F 41% 30.01 in 10.0 mi Calm Calm - N/A   Clear
2:35 PM 37.4 °F - 15.8 °F 41% 30.01 in 10.0 mi Calm Calm - N/A   Clear
2:55 PM 39.2 °F 32.5 °F 15.8 °F 39% 30.01 in 10.0 mi SW 10.4 mph 16.1 mph N/A   Clear
3:15 PM 39.2 °F 32.5 °F 15.8 °F 39% 30.01 in 10.0 mi SW 10.4 mph - N/A   Clear
3:35 PM 39.2 °F - 15.8 °F 39% 30.01 in 10.0 mi Calm Calm - N/A   Unknown
3:55 PM 39.2 °F - 15.8 °F 39% 30.01 in 10.0 mi Calm Calm - N/A   Clear
4:15 PM 39.2 °F - 17.6 °F 42% 30.01 in 10.0 mi Calm Calm - N/A   Clear
4:55 PM 39.2 °F - 17.6 °F 42% 30.02 in 10.0 mi Calm Calm - N/A   Clear
5:15 PM 37.4 °F - 17.6 °F 45% 30.02 in 10.0 mi Calm Calm - N/A   Clear
5:35 PM 37.4 °F - 17.6 °F 45% 30.02 in 10.0 mi Calm Calm - N/A   Clear
6:35 PM 33.8 °F - 19.4 °F 56% 30.04 in 10.0 mi Calm Calm - N/A   Clear
6:55 PM 32.0 °F - 21.2 °F 64% 30.05 in 10.0 mi Calm Calm - N/A   Clear
7:15 PM 32.0 °F - 23.0 °F 69% 30.06 in 10.0 mi Calm Calm - N/A   Clear
7:35 PM 32.0 °F - 23.0 °F 69% 30.06 in 10.0 mi Calm Calm - N/A   Scattered Clouds
7:55 PM 32.0 °F - 24.8 °F 75% 30.07 in 10.0 mi Calm Calm - N/A   Overcast
8:15 PM 32.0 °F - 26.6 °F 80% 30.08 in 10.0 mi Calm Calm - N/A   Overcast
8:35 PM 32.0 °F - 26.6 °F 80% 30.08 in 10.0 mi Calm Calm - N/A   Overcast
8:55 PM 32.0 °F - 24.8 °F 75% 30.08 in 10.0 mi Calm Calm - N/A   Overcast
9:35 PM 33.8 °F - 26.6 °F 75% 30.10 in 10.0 mi Calm Calm - N/A   Overcast
9:55 PM 33.8 °F - 26.6 °F 75% 30.10 in 10.0 mi Calm Calm - N/A   Overcast
10:15 PM 33.8 °F - 26.6 °F 75% 30.10 in 10.0 mi Calm Calm - N/A   Overcast
10:35 PM 33.8 °F - 26.6 °F 75% 30.10 in 10.0 mi Calm Calm - N/A   Overcast
10:55 PM 33.8 °F - 26.6 °F 75% 30.11 in 10.0 mi Calm Calm - N/A   Overcast
11:15 PM 33.8 °F - 26.6 °F 75% 30.11 in 10.0 mi Calm Calm - N/A   Overcast
11:35 PM 35.6 °F - 23.0 °F 60% 30.12 in 10.0 mi Calm Calm - N/A   Overcast
11:55 PM 37.4 °F - 26.6 °F 65% 30.12 in 10.0 mi Calm Calm - N/A   Overcast